{"data":{"norad_id":57795,"intl_designator":"2023-135D","name":"TIANQI-24","alt_names":[],"object_type":"PAYLOAD","status":"ACTIVE","operator":null,"country":"PRC","launch_date":"2023-09-05","launch_site_code":"SEAL","launch_vehicle":null,"mission":null,"orbit_class":"UNKNOWN","rcs_meters":null,"size_class":null,"mass_kg":null,"dimensions":null,"purposes":[],"wikipedia_slug":null,"has_3d_model":false,"image_url":null,"decayed_at":null,"tle_current":{"epoch":"2026-05-25T03:11:35.066400Z","epoch_age_seconds":66588,"freshness":"FRESH","line1":"1 57795U 23135D   26145.13304475 -.00000021  00000+0  60912-4 0  9997","line2":"2 57795  49.9730 249.7850 0014225 180.9264 179.1624 14.23131479141344","mean_motion":14.23131479,"eccentricity":0.0014225,"inclination_deg":49.973,"raan_deg":249.785,"arg_perigee_deg":180.9264,"mean_anomaly_deg":179.1624,"bstar":6.0912e-5,"rev_number":14134,"period_min":101.18531008898,"perigee_km":804.54987731658,"apogee_km":825.01373131486,"semimajor_km":7192.9188043157,"source":"CELESTRAK","updated_at":"2026-05-25T13:38:00.271690Z"}}}